Zurück zum Katalog

THORAD DELTA 1 DEB

AktivSSO
NORAD 18539·DEBRIS·🇺🇸 United States

Gestartet Nov 15, 1974 von Vandenberg Space Force Base

Loading…

Nächste Überflüge (nächste 24 Stunden)

TLE

AktuellSource: Space-Track

Epoche: Sep 14, 2026, 06:32 UTC

1 18539U 74089EZ  26257.27278811  .00000312  00000-0  22078-2 0  9999
2 18539 101.5621 169.9039 0028071 300.2229 212.3263 12.54286857603755

Verfolge THORAD DELTA 1 DEB in Echtzeit mit AllMySat

Download on the App Store